Location: Observatoire
(46.1952°N, 5.3391°E)
Time: 15:41:06
(UTC+01:00)

Courier 1B - Pass Details

Date: 22 February 2026
Orbit: 962 x 1208 km, 28.3° (Epoch: 5 March)

Event Time Altitude Azimuth Distance (km) Brightness Sun altitude
Rises 20:04:23 0° 235° (SW) 3,823 11.4 -19.7°
Reaches altitude 10° 20:07:58 10° 217° (SW) 2,917 10.4 -20.3°
Maximum altitude 20:12:36 18° 177° (S) 2,409 9.4 -21.1°
Enters shadow 20:15:08 16° 152° (SSE) 2,612 9.4 -21.5°
